Sturgis, MI

6:58 PM EST on February 08, 2016 (GMT -0500)
Kirsch Municipal

Weather History for KIRS - April, 2014

Change the Weather History Date:

Monday, April 7, 2014

  Actual Average (KHAI) Record (KHAI)
Temperature  
Mean Temperature 43 °F -  
Max Temperature 53 °F 56 °F 81 °F (1954)
Min Temperature 33 °F 31 °F 7 °F (1982)
Degree Days  
Heating Degree Days 22    
Moisture  
Dew Point 31 °F    
Average Humidity 67    
Maximum Humidity 93    
Minimum Humidity 33    
Precipitation  
Precipitation 0.00 in - - ()
Sea Level Pressure  
Sea Level Pressure 29.73 in    
Wind  
Wind Speed 7 mph (NE)    
Max Wind Speed 17 mph    
Max Gust Speed 22 mph    
Visibility 8 miles    
Events Rain    
Averages and records for this station are not official NWS values.
T = Trace of Precipitation, MM = Missing Value Source: NWS Daily Summary

Daily Weather History Graph

Daily Weather History Graph

Search for Another Location

Airport or City:

Trip Planner

Search our weather history database for the weather conditions in past years. The results will help you decide how hot, cold, wet, or windy it might be!

Date:

Astronomy

Apr. 07, 2014 Rise Set
Actual Time 7:14 AM EDT 8:13 PM EDT
Civil Twilight 6:46 AM EDT 8:42 PM EDT
Nautical Twilight 6:12 AM EDT 9:16 PM EDT
Astronomical Twilight 5:37 AM EDT 9:51 PM EDT
Moon 1:07 PM EDT (4/7) 2:53 AM EDT (4/7)
Length of Visible Light 13h 56m
Length of Day
12h 59m
First Quarter, 53% of the Moon is Illuminated
Apr 7
First Quarter
Apr 15
Full
Apr 22
Last Quarter
Apr 29
New
May 6
First Quarter

Hourly Weather History & Observations

Time (EDT) Temp. Windchill Dew Point Humidity Pressure Visibility Wind Dir Wind Speed Gust Speed Precip Events Conditions
12:15 AM 35.6 °F - 28.4 °F 75% 29.99 in 10.0 mi Calm Calm - N/A   Clear
12:35 AM 37.4 °F 33.8 °F 26.6 °F 65% 29.98 in 10.0 mi East 4.6 mph - N/A   Clear
12:54 AM 37.4 °F 32.8 °F 28.4 °F 70% 29.97 in 10.0 mi East 5.8 mph - N/A   Clear
1:15 AM 37.4 °F 32.1 °F 28.4 °F 70% 29.97 in 10.0 mi East 6.9 mph - N/A   Clear
1:35 AM 39.2 °F 33.6 °F 28.4 °F 65% 29.96 in 10.0 mi East 8.1 mph - N/A   Clear
1:54 AM 39.2 °F 34.2 °F 28.4 °F 65% 29.96 in 10.0 mi East 6.9 mph - N/A   Clear
2:15 AM 37.4 °F 32.8 °F 28.4 °F 70% 29.95 in 10.0 mi East 5.8 mph - N/A   Clear
2:35 AM 37.4 °F 32.1 °F 28.4 °F 70% 29.95 in 10.0 mi East 6.9 mph - N/A   Clear
2:54 AM 37.4 °F 31.4 °F 28.4 °F 70% 29.94 in 10.0 mi East 8.1 mph - N/A   Clear
3:15 AM 35.6 °F 29.9 °F 28.4 °F 75% 29.92 in 10.0 mi East 6.9 mph - N/A   Clear
3:35 AM 35.6 °F 28.6 °F 28.4 °F 75% 29.91 in 10.0 mi East 9.2 mph - N/A   Clear
3:54 AM 35.6 °F 29.2 °F 26.6 °F 70% 29.89 in 10.0 mi East 8.1 mph - N/A   Clear
4:15 AM 35.6 °F 29.2 °F 26.6 °F 70% 29.88 in 10.0 mi East 8.1 mph - N/A   Clear
4:34 AM 35.6 °F 28.6 °F 26.6 °F 70% 29.88 in 10.0 mi East 9.2 mph - N/A   Clear
4:55 AM 35.6 °F 29.9 °F 26.6 °F 70% 29.87 in 10.0 mi East 6.9 mph - N/A   Clear
5:15 AM 33.8 °F 28.6 °F 24.8 °F 70% 29.85 in 10.0 mi ENE 5.8 mph - N/A   Clear
5:34 AM 33.8 °F 27.0 °F 26.6 °F 75% 29.84 in 10.0 mi ENE 8.1 mph - N/A   Clear
5:55 AM 35.6 °F 28.6 °F 24.8 °F 65% 29.85 in 10.0 mi East 9.2 mph - N/A   Clear
6:15 AM 35.6 °F 29.2 °F 24.8 °F 65% 29.83 in 10.0 mi ENE 8.1 mph - N/A   Clear
6:34 AM 35.6 °F 29.9 °F 26.6 °F 70% 29.84 in 10.0 mi ENE 6.9 mph - N/A   Clear
6:55 AM 37.4 °F 32.1 °F 26.6 °F 65% 29.84 in 10.0 mi ENE 6.9 mph - N/A   Clear
7:15 AM 37.4 °F 32.1 °F 26.6 °F 65% 29.84 in 10.0 mi ENE 6.9 mph - N/A   Clear
7:34 AM 37.4 °F 32.1 °F 26.6 °F 65% 29.83 in 10.0 mi NE 6.9 mph - N/A   Clear
7:55 AM 35.6 °F 30.7 °F 26.6 °F 70% 29.83 in 10.0 mi NNE 5.8 mph - N/A   Clear
8:14 AM 37.4 °F 32.1 °F 26.6 °F 65% 29.84 in 10.0 mi NNE 6.9 mph - N/A   Clear
8:35 AM 37.4 °F - 26.6 °F 65% 29.85 in 10.0 mi Calm Calm - N/A   Clear
8:55 AM 37.4 °F 34.9 °F 26.6 °F 65% 29.84 in 10.0 mi NNE 3.5 mph - N/A   Clear
9:14 AM 37.4 °F 32.8 °F 26.6 °F 65% 29.85 in 10.0 mi NE 5.8 mph - N/A   Clear
9:35 AM 39.2 °F 34.2 °F 26.6 °F 61% 29.83 in 10.0 mi NE 6.9 mph - N/A   Clear
9:55 AM 39.2 °F 34.2 °F 26.6 °F 61% 29.82 in 10.0 mi NE 6.9 mph - N/A   Clear
10:14 AM 39.2 °F 33.6 °F 26.6 °F 61% 29.81 in 10.0 mi NE 8.1 mph - N/A   Clear
10:35 AM 41.0 °F 36.4 °F 28.4 °F 61% 29.79 in 10.0 mi ENE 6.9 mph - N/A   Scattered Clouds
10:55 AM 44.6 °F 39.2 °F 28.4 °F 53% 29.77 in 10.0 mi ENE 10.4 mph - N/A   Clear
11:14 AM 46.4 °F 41.1 °F 28.4 °F 50% 29.74 in 10.0 mi ENE 11.5 mph - N/A   Clear
11:35 AM 51.8 °F - 28.4 °F 41% 29.72 in 10.0 mi ENE 17.3 mph 21.9 mph N/A   Clear
11:55 AM 51.8 °F - 26.6 °F 38% 29.71 in 10.0 mi NE 9.2 mph - N/A   Clear
12:14 PM 53.6 °F - 26.6 °F 35% 29.71 in 10.0 mi ENE 11.5 mph - N/A   Clear
12:35 PM 53.6 °F - 26.6 °F 35% 29.70 in 10.0 mi East 11.5 mph 16.1 mph N/A   Clear
12:55 PM 53.6 °F - 26.6 °F 35% 29.68 in 10.0 mi ENE 11.5 mph - N/A   Clear
1:14 PM 53.6 °F - 26.6 °F 35% 29.66 in 10.0 mi East 12.7 mph - N/A   Clear
1:35 PM 53.6 °F - 26.6 °F 35% 29.65 in 10.0 mi NE 11.5 mph - N/A   Clear
1:55 PM 53.6 °F - 26.6 °F 35% 29.64 in 10.0 mi NE 13.8 mph - N/A   Scattered Clouds
2:14 PM 53.6 °F - 26.6 °F 35% 29.63 in 10.0 mi ENE 15.0 mph 21.9 mph N/A   Scattered Clouds
2:35 PM 53.6 °F - 24.8 °F 33% 29.62 in 10.0 mi NE 12.7 mph 17.3 mph N/A   Overcast
2:55 PM 53.6 °F - 24.8 °F 33% 29.60 in 10.0 mi NNE 13.8 mph 20.7 mph N/A   Mostly Cloudy
3:14 PM 53.6 °F - 26.6 °F 35% 29.59 in 10.0 mi NE 12.7 mph 17.3 mph N/A   Scattered Clouds
3:35 PM 51.8 °F - 26.6 °F 38% 29.59 in 10.0 mi NE 13.8 mph 17.3 mph N/A   Scattered Clouds
4:14 PM 50.0 °F - 30.2 °F 47% 29.59 in 10.0 mi NNE 10.4 mph - N/A Rain Light Rain
4:35 PM 48.2 °F - 33.8 °F 58% 29.61 in 10.0 mi East 5.8 mph - N/A Rain Rain
4:55 PM 44.6 °F 41.4 °F 35.6 °F 71% 29.60 in 4.0 mi NNE 5.8 mph - N/A Rain Rain
5:15 PM 44.6 °F 41.4 °F 35.6 °F 71% 29.59 in 3.0 mi NE 5.8 mph - N/A Rain Rain
5:35 PM 44.6 °F 40.7 °F 39.2 °F 81% 29.59 in 5.0 mi North 6.9 mph - N/A Rain Rain
5:54 PM 44.6 °F 42.2 °F 39.2 °F 81% 29.58 in 7.0 mi North 4.6 mph - N/A Rain Light Rain
6:15 PM 42.8 °F 39.3 °F 39.2 °F 87% 29.59 in 7.0 mi NNE 5.8 mph - N/A Rain Light Rain
6:35 PM 42.8 °F 41.1 °F 39.2 °F 87% 29.59 in 5.0 mi North 3.5 mph - N/A Rain Rain
6:54 PM 42.8 °F 40.1 °F 39.2 °F 87% 29.59 in 4.0 mi North 4.6 mph - N/A Rain Rain
7:15 PM 42.8 °F 38.0 °F 39.2 °F 87% 29.58 in 4.0 mi North 8.1 mph - N/A Rain Light Rain
7:35 PM 42.8 °F 38.0 °F 39.2 °F 87% 29.57 in 4.0 mi North 8.1 mph - N/A Rain Light Rain
7:54 PM 42.8 °F 38.6 °F 39.2 °F 87% 29.56 in 5.0 mi North 6.9 mph - N/A Rain Rain
8:15 PM 41.0 °F 36.4 °F 39.2 °F 93% 29.56 in 5.0 mi NNE 6.9 mph - N/A Rain Rain
8:35 PM 41.0 °F 36.4 °F 39.2 °F 93% 29.56 in 5.0 mi North 6.9 mph - N/A Rain Light Rain
8:54 PM 41.0 °F 36.4 °F 39.2 °F 93% 29.56 in 5.0 mi North 6.9 mph - N/A Rain Light Rain
9:15 PM 41.0 °F 37.1 °F 39.2 °F 93% 29.56 in 4.0 mi North 5.8 mph - N/A Rain Light Rain
9:34 PM 41.0 °F 37.1 °F 39.2 °F 93% 29.56 in 4.0 mi North 5.8 mph - N/A Rain Light Rain
9:55 PM 41.0 °F 37.1 °F 39.2 °F 93% 29.56 in 5.0 mi North 5.8 mph - N/A Rain Light Rain
10:15 PM 41.0 °F 38.0 °F 39.2 °F 93% 29.56 in 5.0 mi North 4.6 mph - N/A   Drizzle
10:34 PM 41.0 °F 38.0 °F 39.2 °F 93% 29.55 in 5.0 mi North 4.6 mph - N/A   Drizzle
10:55 PM 41.0 °F 38.0 °F 39.2 °F 93% 29.55 in 4.0 mi NW 4.6 mph - N/A   Drizzle
11:15 PM 41.0 °F 39.0 °F 39.2 °F 93% 29.54 in 4.0 mi NNW 3.5 mph - N/A   Light Drizzle
11:34 PM 41.0 °F 38.0 °F 39.2 °F 93% 29.54 in 5.0 mi NW 4.6 mph - N/A   Mostly Cloudy
11:55 PM 41.0 °F 37.1 °F 39.2 °F 93% 29.55 in 5.0 mi West 5.8 mph - N/A   Overcast